Powrót do katalogu

STARLINK-2575

AktywnyŁącznośćVLEO
NORAD 48396·PAYLOAD·🇺🇸 United States

Wystrzelony May 4, 2021 z Cape Canaveral Space Force Station

Loading…

Następne Przeloty (najbliższe 24 godziny)

TLE

ŚwieżeSource: CelesTrak SupGP

Epoka: Sep 14, 2026, 21:16 UTC

1 48396C 21038AV  26257.88659722 -.00023722  00000+0 -76223-3 0  2570
2 48396  53.1606 172.0273 0001569  93.4489 248.7693 15.31739255    14

Śledź STARLINK-2575 w czasie rzeczywistym z AllMySat

Download on the App Store